www.pogodaiklimat.ru
ПОГОДА в Эльмире
Время
и дата
13:53 26.06
14:08 26.06
14:22 26.06
14:34 26.06
14:49 26.06
14:53 26.06
15:20 26.06
15:53 26.06
16:00 26.06
16:06 26.06
16:13 26.06
16:53 26.06
17:53 26.06
18:53 26.06
19:53 26.06
20:53 26.06
21:53 26.06
22:53 26.06
23:53 26.06
00:53 27.06
01:12 27.06
01:53 27.06
02:53 27.06
03:13 27.06
03:53 27.06
04:53 27.06
05:00 27.06
05:14 27.06
05:53 27.06
06:53 27.06
07:53 27.06
08:53 27.06
09:53 27.06
10:53 27.06
11:53 27.06
12:53 27.06
13:53 27.06
14:53 27.06
15:53 27.06
16:53 27.06
17:53 27.06
18:53 27.06
19:53 27.06
20:53 27.06
21:53 27.06
22:53 27.06
23:53 27.06
00:53 28.06
Ветер
(напр.,м/с)
Видим. Явления Облачность Т
(С)
Тd
(С)
f
(%)
Тe
(С)
Тes
(С)
Комфортность P
(гПа)
Po
(гПа)
Тmin
(С)
Tmax
(С)
R
(мм)
R24
(мм)
S
(см)
ЮЗ 3 16 км 2/2 1650 м
[Ac]
+33.3 +19.4 44 +39 +43 очень
душно
1012.6 978.6
Ю 3 0 м гроза 8/5 1650 м
[Ac]
+30.6 +19.4 51 +36 +39 очень
душно
978.6
З 4
{6}
16 км 10/8 1500 м
[Ac]
+27.2 +18.3 58 +32 +32 очень
душно
979.3
З 2
{5}
0 м гроза 10/8 1500 м
[Ac]
+25.6 +18.9 66 +31 +32 очень
душно
979.3
Ю 2 16 км 10/5 1470 м
[Ac]
+25.0 +19.0 69 +30 +33 душно 979.3
ЮЗ 2 16 км 8/5 1440 м
[Ac]
+25.0 +20.0 74 1013.4
З 2 0 м гроза, слабый дождь 5/2 1110 м
[Ac]
+26.1 +21.1 74
З 3
{7}
4 км гроза со слабым дождем, дымка 10/8 690 м
[Ac]
+22.8 +20.6 87 1013.8 1.3
З 2
{4}
1 км гроза с сильным дождем, дымка 10/10 720 м +22.2 +21.1 93 +29 +29 очень
душно
979.6
ЮЗ 1 2 км гроза, сильный дождь, дымка 10/8 720 м
[Ac]
+21.7 +21.1 96 +28 +28 душно 979.6
З 1 0 м гроза, слабый дождь 10/5 1290 м
[Ac]
+22.2 +21.1 93 +29 +31 очень
душно
979.6
ЮЗ 2 16 км 8/0 3300 м
[Ac]
+23.9 +21.1 84 +30 +33 очень
душно
1013.4 979.3
Ю 1 16 км 8/0 3000 м
[Ac]
+23.9 +20.6 82 +30 +32 очень
душно
1013.3 979.3
С 1 16 км 10/0 2850 м
[Ac]
+23.9 +21.7 88 +31 +31 очень
душно
1012.8 978.9 +21.7 +33.3 4.1
С 1 16 км 8/0 2700 м
[Ac]
+22.8 +21.7 94 +31 +31 очень
душно
1012.8 978.9
нст 1 16 км слабый дождь 8/0 3000 м
[Ac]
+24.4 +21.1 82 +31 +31 очень
душно
1012.7 978.9
З 1 16 км слабый дождь 8/8 1440 м
[Ac]
+22.8 +21.7 94 +31 +31 очень
душно
1012.6 978.9
ЮЗ 1 16 км слабый дождь 8/2 1650 м
[Ac]
+23.3 +21.1 87 +31 +31 очень
душно
1012.2 978.3
штиль 0 11 км слабый дождь 5/0 3600 м
[Ac]
+22.2 +21.1 93 +29 +29 очень
душно
1011.9 978.3
штиль 0 11 км слабый дождь 10/8 510 м
[Ac]
+21.7 +21.1 96 +28 +28 душно 1011.5 977.9 +21.7 +24.4 0.8
штиль 0 10 км дымка 10/8 840 м
[Ac]
+21.1 +21.1 100 +26 +26 душно 977.6
штиль 0 10 км дымка 10/10 480 м +21.7 +21.1 96 +28 +28 душно 1011.1 977.6
З 1 13 км 10/10 630 м +21.7 +21.1 96 +28 +28 душно 1011.3 977.3
ЮЗ 1 16 км 5/5 690 м +22.2 +21.1 93 +29 +29 очень
душно
977.3
З 1 14 км 5/5 1230 м +21.7 +20.6 93 +27 +27 душно 1011.4 977.6 0.3
нст 1 16 км 10/10 600 м +22.2 +20.0 87 +28 +28 душно 1012.3 978.3
СЗ 2
{5}
16 км 10/10 540 м +21.7 +19.4 87 +27 +27 душно 978.6
СЗ 3
{5}
16 км 10/10 570 м +20.0 +15.6 76 +22 +22 комфорт 978.9
ЮЗ 1 16 км 10/10 1320 м +18.9 +13.3 70 +20 +20 1014.0 979.9
СЗ 1 16 км ясно +18.9 +13.9 73 +20 +22 1014.9 980.9 +18.3 +22.2 0.3 5.1
СЗ 2 16 км ясно +21.1 +12.8 59 +23 +25 комфорт 1015.0 980.9
З 2 16 км 2/2 1230 м +21.1 +12.2 57 +23 +26 комфорт 1015.3 981.2
СЗ 2 16 км 8/8 1440 м +22.8 +11.7 50 +25 +27 комфорт 1015.1 981.2
СЗ 3 16 км 5/5 1500 м +23.9 +11.1 45 +25 +28 комфорт 1015.0 981.2
З 2
{4}
16 км 5/5 1650 м +24.4 +11.1 43 +26 +31 жарко 1015.1 981.2
СЗ 3 16 км 2/2 1800 м +25.6 +11.1 40 +27 +31 жарко 1014.9 980.9 +18.9 +26.1
З 2 16 км 2/0 2100 м
[Ac]
+26.1 +10.0 36 +27 +38 жарко 1014.6 980.6
СЗ 1 16 км 2/0 2100 м
[Ac]
+25.6 +8.9 35 +26 +38 жарко 1014.3 980.6
СЗ 1
{4}
16 км 5/0 2100 м
[Ac]
+25.6 +9.4 36 +26 +33 жарко 1014.4 980.6
СЗ 3
{4}
16 км 5/0 2100 м
[Ac]
+23.3 +8.3 38 +24 +27 комфорт 1014.8 980.9
СЗ 3
{4}
16 км 5/0 2100 м
[Ac]
+22.2 +7.8 40 +23 +24 комфорт 1015.9 981.9
СЗ 3
{4}
16 км 2/0 2100 м
[Ac]
+20.6 +7.2 42 +21 +22 комфорт 1017.3 982.9 +20.6 +26.1
З 1 16 км ясно +17.8 +7.2 50 +18 +18 1018.1 983.8
СЗ 1 16 км 8/0 2250 м
[Ac]
+16.7 +8.3 58 +17 +17 1019.0 984.5
З 1 16 км 10/5 1950 м
[Ac]
+16.1 +9.4 64 +16 +16 1019.1 984.8
З 1 16 км 10/2 1650 м
[Ac]
+16.1 +9.4 64 +16 +16 1019.2 984.8
штиль 0 16 км 10/2 1470 м
[Ac]
+15.6 +10.6 72 +15 +15 1019.3 984.8
СЗ 1 16 км 2/0 2400 м
[Ac]
+13.9 +9.4 74 +13 +13 1019.7 985.1 +13.9 +20.6
Местоположение метеостанции Elmira / Corning Regional Airport: широта 42.1564 долгота -76.9028 высота над уровнем моря 291 м.
В архиве по умолчанию представлена погода в Эльмире за последние 1-2 суток. Обновление информации о фактической погоде в базе происходит ежечасно! Архивные данные за месяц целиком и за предыдущие месяцы Вы можете получить, выбрав интересующий диапазон дат из раскрывающегося списка и нажав кнопку "Ввод!".
Внимание! Архив погоды МЕТАР в базе сайта по станциям, не включенным в климатический монитор, хранится не более 60 дней. Нет смысла пытаться выбрать более раннюю дату.
*Определитесь, кто Вы:
Внимание! Время в таблицах - местное (без учета летнего времени). Для получения всемирного времени необходимо вычесть поправку, которая равна -5 ч.
Смотрите также архив погоды в соседних городах и на ближайших метеорологических станциях:
Партнеры нашего сайта:      
Пояснения к столбцам:
  • Ветер - указаны скорость ветра в м/с - средняя за 10 мин, порывы в срок и между сроками (в фигурных скобках) и направление, откуда дует ветер: С - северный,
  • СВ - северо-восточный, В - восточный, ЮВ - юго-восточный, Ю - южный, ЮЗ - юго-западный, З - западный, СЗ - северо-западный.
  • Видимость - горизонтальная дальность видимости в метрах или километрах. При видимости от 1 до 10 км при отсутствии осадков обычно наблюдается дымка, при ухудшении видимости до 1 км и менее - туман. В сухую погоду видимость может ухудшаться дымом, пылью или мглою.
  • Явления - указаны атмосферные явления, наблюдавшиеся в срок или в последний час перед сроком; фигурными скобками обозначены явления, наблюдавшиеся между сроками (за 1-3 часа до срока); квадратными скобками обозначены град или гололедные отложения с указанием их диаметра в мм.
  • Облачность - указаны через наклонную черту общая и нижняя облачность в баллах и высота нижней границы облаков в метрах; квадратными скобками обозначены формы облаков: Ci - перистые, Cs - перисто-слоистые, Cc - перисто-кучевые, Ac - высококучевые, As - высокослоистые, Sc - слоисто-кучевые, Ns - слоисто-дождевые, Cu - кучевые, Cb - кучево-дождевые. Подробнее классификацию облаков см. в Атласе облаков (PDF).
  • T - Температура воздуха - температура, измеренная на высоте 2 м над землей.
  • Td - Температура точки росы - температура, при понижении до которой содержащийся в воздухе водяной пар достигнет насыщения.
  • f - Относительная влажность воздуха - влажноcть воздуха, измеренная на высоте 2 м над землей.
  • Te - Эффективная температура - температура, которую ощущает одетый по сезону человек в тени. Характеристика душности погоды. При расчете учитывается влияние влажности воздуха и скорости ветра на теплоощущения человека.
  • Tes - Эффективная температура на солнце - температура, которую ощущает человек, с поправкой на солнечный нагрев. Характеристика знойности погоды. Зависит от высоты солнца над горизонтом, облачности и скорости ветра. Ночью, в пасмурную погоду, а также при ветре 12 м/с и более поправка равна нулю.
  • P - Атмосферное давление - приведенное к уровню моря атмосферное давление.
  • Po - Атмосферное давление - измеренное на уровне метеостанции атмосферное давление.
  • Tmin - Минимальная температура - минимум температуры воздуха на высоте 2 м над землей.
  • Tmax - Максимальная температура - максимум температуры воздуха на высоте 2 м над землей.
  • R - Количество осадков - Количество выпавших осадков за период времени, мм. При наведении курсора мыши на число - период времени, за который выпало указанное количество осадков.
  • R24 - Количество осадков - Количество выпавших осадков за 24 часа, мм.
  • S - Снежный покров - Высота снежного покрова, см. При наведении курсора мыши на число - состояние снежного покрова и степень покрытия местности в баллах.